Waarnemingen

Advertentie
Mijn weer
Cardinham, Groot Brittannië (3823): temperatuur & dauwpunt: 05.12.2017 05:00:00 - 11.12.2017 05:00:00 (GMT)Cardinham, Groot Brittannië (3823): temperatuur -20cm & temperatuur -100cm: 05.12.2017 05:00:00 - 11.12.2017 05:00:00 (GMT)Cardinham, Groot Brittannië (3823): windsnelheid & windstoten: 05.12.2017 05:00:00 - 11.12.2017 05:00:00 (GMT)Cardinham, Groot Brittannië (3823): windrichting: 05.12.2017 05:00:00 - 11.12.2017 05:00:00 (GMT)Cardinham, Groot Brittannië (3823): luchtdruk: 05.12.2017 05:00:00 - 11.12.2017 05:00:00 (GMT)Cardinham, Groot Brittannië (3823): zicht: 05.12.2017 05:00:00 - 11.12.2017 05:00:00 (GMT)Cardinham, Groot Brittannië (3823): neerslag: 05.12.2017 05:00:00 - 11.12.2017 05:00:00 (GMT)
Datum & Tijd tt [°C] td [°C] tt -20cm [°C] tt -100cm [°C] ff [km/u] ff [kn] fx [km/u] fx [kn] dd ppp [hPa] vv [km] rr [mm]
11.12.2017 05:00:00 1,3 0,4 - - 35 19 57 31 NNO 977,7 19 0,0
11.12.2017 04:00:00 1,2 0,9 - - 28 15 55 30 NNO 976,8 5 0,0
11.12.2017 03:00:00 1,4 1,0 - - 34 18 52 28 NNO 976,6 7 0,0
11.12.2017 02:00:00 2,5 2,1 - - 21 11 - - NNO 976,8 3,3 0,0
11.12.2017 01:00:00 4,0 3,5 - - 11 6 - - NNO 976,5 20 0,0
11.12.2017 00:00:00 3,7 3,1 - - 2 1 - - WNW 976,7 11 0,0
10.12.2017 23:00:00 3,8 3,1 - - 2 1 - - OZO 976,9 19 0,0
10.12.2017 22:00:00 3,9 3,3 - - 4 2 - - O 976,3 14 0,8
10.12.2017 21:00:00 4,2 3,3 - - 8 4 - - Z 977,2 2,6 0,2
10.12.2017 20:00:00 4,9 3,4 - - 9 5 - - NW 977,1 20 0,0
10.12.2017 19:00:00 4,8 3,3 - - 11 6 - - W 977,6 16 0,2
10.12.2017 18:00:00 5,5 3,6 - - 11 6 - - NW 977,7 12 0,0
10.12.2017 17:00:00 5,8 3,6 - - 26 14 48 26 W 978,0 15 0,2
10.12.2017 16:00:00 6,3 3,1 - - 31 17 54 29 W 978,4 17 0,2
10.12.2017 15:00:00 6,8 3,4 - - 35 19 59 32 W 978,9 20 0,2
10.12.2017 14:00:00 7,9 2,7 - - 34 18 65 35 W 979,0 13 0,0
10.12.2017 13:00:00 8,4 3,3 - - 37 20 63 34 W 979,4 12 0,0
10.12.2017 12:00:00 8,6 3,7 - - 39 21 67 36 W 979,9 14 0,0
10.12.2017 11:00:00 8,5 3,0 - - 44 24 74 40 W 980,5 12 0,0
10.12.2017 10:00:00 7,9 3,5 - - 44 24 81 44 W 980,3 12 0,0
10.12.2017 09:00:00 7,6 3,9 8,2 9,7 50 27 91 49 W 980,5 10 0,0
10.12.2017 08:00:00 7,3 3,5 - - 54 29 89 48 W 980,5 11 0,0
10.12.2017 07:00:00 7,1 3,2 - - - - 81 44 - 981,0 10 0,0
10.12.2017 06:00:00 7,7 6,5 - - 44 24 78 42 W 981,1 8 1,8
10.12.2017 05:00:00 8,7 8,4 - - 50 27 81 44 W 981,4 10 3,4
10.12.2017 04:00:00 9,2 9,2 - - 28 15 46 25 W 983,9 7 5,4
10.12.2017 03:00:00 7,2 7,2 - - 24 13 46 25 ZZO 986,7 6 4,2
10.12.2017 02:00:00 6,8 6,8 - - 34 18 52 28 ZZO 989,9 7 3,4
10.12.2017 01:00:00 6,2 6,2 - - 34 18 48 26 ZO 993,1 4,3 1,4
10.12.2017 00:00:00 5,8 5,7 - - 29 16 52 28 ZO 996,6 3,2 0,2
09.12.2017 23:00:00 4,9 4,9 - - 26 14 - - ZZO 999,6 10 0,0
09.12.2017 22:00:00 3,7 3,7 - - 22 12 - - ZO 1002,4 1,5 0,2
09.12.2017 21:00:00 3,4 3,2 - - 18 10 - - ZO 1004,9 1,7 0,4
09.12.2017 20:00:00 3,0 2,6 - - 16 9 - - ZO 1006,9 11 0,4
09.12.2017 19:00:00 3,0 2,3 - - 11 6 - - ZO 1008,6 14 0,6
09.12.2017 18:00:00 3,1 2,1 - - 13 7 - - ZO 1010,1 14 0,2
09.12.2017 17:00:00 3,2 1,8 - - 8 4 - - OZO 1011,4 19 0,2
09.12.2017 16:00:00 3,9 1,4 - - 8 4 - - ZO 1012,4 25 0,0
09.12.2017 15:00:00 4,2 0,7 - - 8 4 - - ZO 1013,4 30 0,0
09.12.2017 14:00:00 4,1 0,8 - - 5 3 - - ZZO 1015,1 28 0,0
09.12.2017 13:00:00 3,7 0,2 - - 4 2 - - ZO 1016,7 29 0,0
09.12.2017 12:00:00 3,3 0,3 - - 4 2 - - ZZO 1018,0 40 0,0
09.12.2017 11:00:00 2,8 -0,3 - - 4 2 - - OZO 1019,3 30 0,0
09.12.2017 10:00:00 3,3 -0,8 - - 4 2 - - NW 1019,8 30 0,0
09.12.2017 09:00:00 1,7 -2,2 8,7 10,0 4 2 - - Z 1020,6 30 0,0
09.12.2017 08:00:00 2,4 -1,3 - - 5 3 - - NW 1021,0 30 0,0
09.12.2017 07:00:00 2,8 -0,8 - - 4 2 - - NNW 1021,5 25 0,0
09.12.2017 06:00:00 3,2 -0,3 - - 11 6 - - W 1021,8 26 0,0
09.12.2017 05:00:00 3,6 -1,9 - - 11 6 - - NNW 1022,1 35 0,0
09.12.2017 04:00:00 3,6 -2,2 - - 15 8 - - NNW 1022,4 40 0,0
09.12.2017 03:00:00 3,6 -1,3 - - 15 8 - - NNW 1022,9 30 0,0
09.12.2017 02:00:00 3,6 -0,8 - - 16 9 - - NW 1022,9 35 0,0
09.12.2017 01:00:00 3,7 -0,7 - - 16 9 - - NW 1023,3 30 0,0
09.12.2017 00:00:00 3,9 0,0 - - 22 12 52 28 NW 1023,7 35 0,0
08.12.2017 23:00:00 4,4 -1,3 - - 26 14 46 25 NW 1023,6 29 0,0
08.12.2017 22:00:00 4,1 -0,1 - - 24 13 - - NW 1023,7 35 0,2
08.12.2017 21:00:00 2,9 -0,7 - - 16 9 57 31 N 1024,1 35 0,0
08.12.2017 20:00:00 4,2 -1,1 - - 34 18 54 29 NW 1023,9 26 0,0
08.12.2017 19:00:00 3,9 -2,2 - - 31 17 54 29 NW 1024,1 30 0,0
08.12.2017 18:00:00 3,5 -1,3 - - 26 14 55 30 NW 1023,8 28 0,0
08.12.2017 17:00:00 2,5 -0,6 - - 28 15 55 30 NNW 1023,8 22 0,4
08.12.2017 16:00:00 3,2 -0,8 - - 31 17 55 30 NW 1023,8 30 0,0
08.12.2017 15:00:00 3,3 -0,4 - - 21 11 55 30 NW 1023,3 18 0,2
08.12.2017 14:00:00 4,5 -2,5 - - 31 17 48 26 NW 1023,4 30 0,0
08.12.2017 13:00:00 4,5 -2,8 - - 34 18 59 32 NNW 1023,1 26 0,0
08.12.2017 12:00:00 5,6 -0,9 - - 37 20 54 29 NNW 1023,0 25 0,0
08.12.2017 11:00:00 4,6 -1,4 - - 34 18 55 30 NW 1023,0 17 0,0
08.12.2017 10:00:00 4,6 -1,8 - - 37 20 63 34 NNW 1022,6 28 0,0
08.12.2017 09:00:00 3,7 -1,7 9,0 10,0 35 19 65 35 NW 1021,9 23 0,0
08.12.2017 08:00:00 3,3 -1,6 - - 37 20 57 31 NW 1020,9 27 0,0
08.12.2017 07:00:00 3,7 -1,2 - - 34 18 67 36 NW 1020,6 19 0,0
08.12.2017 06:00:00 3,6 -1,4 - - 37 20 57 31 NW 1020,0 22 0,6
08.12.2017 05:00:00 2,6 -0,7 - - 35 19 65 35 NW 1019,7 22 0,4
08.12.2017 04:00:00 4,2 -2,9 - - 37 20 59 32 NW 1019,1 30 0,0
08.12.2017 03:00:00 4,3 -2,7 - - 39 21 67 36 NW 1019,1 40 0,0
08.12.2017 02:00:00 4,3 -1,7 - - 37 20 63 34 NW 1019,1 26 0,0
08.12.2017 01:00:00 4,6 -1,8 - - 37 20 67 36 NW 1019,0 30 0,0
08.12.2017 00:00:00 5,2 -0,1 - - 31 17 57 31 NW 1018,7 35 0,0
07.12.2017 23:00:00 5,0 0,5 - - 22 12 46 25 WNW 1018,2 35 0,0
07.12.2017 22:00:00 5,4 0,5 - - 26 14 - - NW 1017,9 26 0,0
07.12.2017 21:00:00 5,9 0,9 - - 31 17 48 26 NW 1018,1 24 0,0
07.12.2017 20:00:00 6,2 2,2 - - 26 14 52 28 NW 1017,5 19 0,0
07.12.2017 19:00:00 6,4 2,6 - - 26 14 52 28 NW 1017,4 19 0,2
07.12.2017 18:00:00 6,7 1,0 - - 29 16 50 27 NW 1016,8 17 0,0
07.12.2017 17:00:00 7,1 2,0 - - 34 18 55 30 NW 1016,3 18 0,0
07.12.2017 16:00:00 7,1 2,3 - - 31 17 55 30 NW 1015,5 16 0,0
07.12.2017 15:00:00 7,6 2,3 - - 37 20 52 28 NW 1014,5 25 0,0
07.12.2017 14:00:00 8,2 3,5 - - 26 14 52 28 NW 1013,2 15 0,0
07.12.2017 13:00:00 7,5 3,5 - - 37 20 55 30 NNW 1014,0 16 0,0
07.12.2017 12:00:00 7,9 4,0 - - 39 21 63 34 NNW 1013,4 15 0,0
07.12.2017 11:00:00 8,3 5,9 - - 35 19 57 31 NNW 1012,2 10 0,0
07.12.2017 10:00:00 8,2 7,5 - - 37 20 59 32 NNW 1010,6 8 0,0
07.12.2017 09:00:00 9,7 9,5 8,9 10,0 37 20 61 33 NNW 1008,2 2,5 1,2
07.12.2017 08:00:00 11,3 11,2 - - 26 14 - - W 1006,9 1,0 0,0
07.12.2017 07:00:00 11,7 11,5 - - 31 17 - - WZW 1006,8 2,2 1,8
07.12.2017 06:00:00 11,9 11,7 - - 34 18 50 27 WZW 1007,3 4,2 0,8
07.12.2017 05:00:00 12,0 11,8 - - 29 16 50 27 W 1008,3 2,3 0,6
07.12.2017 04:00:00 12,1 11,8 - - 34 18 52 28 WZW 1009,5 4,4 0,2
07.12.2017 03:00:00 11,7 11,6 - - 34 18 55 30 ZZW 1010,4 3,0 1,0
07.12.2017 02:00:00 11,4 11,3 - - 41 22 67 36 ZZW 1011,6 3,9 0,8
07.12.2017 01:00:00 11,1 11,0 - - 42 23 65 35 ZZW 1012,9 2,9 0,2
07.12.2017 00:00:00 10,9 10,8 - - 42 23 61 33 ZZW 1014,4 3,0 0,4
06.12.2017 23:00:00 10,7 10,6 - - 39 21 57 31 ZZW 1015,5 3,0 0,0
06.12.2017 22:00:00 10,4 10,2 - - 35 19 57 31 ZZW 1016,7 3,8 0,4
06.12.2017 21:00:00 10,2 10,1 - - 39 21 61 33 ZZW 1017,8 3,2 0,6
06.12.2017 20:00:00 9,9 9,7 - - 35 19 54 29 ZZW 1018,9 4,9 0,4
06.12.2017 19:00:00 9,7 9,2 - - 35 19 55 30 ZZW 1019,8 2,9 0,0
06.12.2017 18:00:00 9,7 9,0 - - 35 19 55 30 ZZW 1020,8 9 0,4
06.12.2017 17:00:00 9,7 8,9 - - 31 17 50 27 ZZW 1021,8 11 0,8
06.12.2017 16:00:00 9,8 8,7 - - 35 19 52 28 Z 1022,6 12 0,0
06.12.2017 15:00:00 9,7 8,2 - - 37 20 57 31 Z 1023,5 14 0,0
06.12.2017 14:00:00 9,9 7,8 - - 35 19 54 29 ZZW 1024,7 17 0,0
06.12.2017 13:00:00 10,2 8,3 - - 29 16 63 34 ZZW 1025,7 14 0,0
06.12.2017 12:00:00 10,0 8,1 - - 26 14 48 26 ZZW 1026,7 17 0,0
06.12.2017 11:00:00 10,1 7,2 - - 28 15 - - Z 1027,5 35 0,0
06.12.2017 10:00:00 9,4 7,3 - - 22 12 52 28 Z 1027,9 35 0,0
06.12.2017 09:00:00 9,4 5,7 8,7 10,0 24 13 - - ZZW 1028,3 45 0,0
06.12.2017 08:00:00 9,2 5,8 - - 22 12 - - ZZW 1028,8 40 0,0
06.12.2017 07:00:00 9,1 6,9 - - 22 12 - - ZW 1029,2 35 0,0
06.12.2017 06:00:00 8,9 7,4 - - 22 12 - - ZW 1029,8 30 0,0
06.12.2017 05:00:00 9,0 7,6 - - 18 10 - - ZZW 1030,3 30 0,0
06.12.2017 04:00:00 8,7 7,7 - - 15 8 - - ZW 1031,1 30 0,0
06.12.2017 03:00:00 8,8 7,2 - - 16 9 - - ZZW 1031,7 35 0,0
06.12.2017 02:00:00 8,5 6,4 - - 15 8 - - ZZW 1032,2 45 0,0
06.12.2017 01:00:00 8,3 5,9 - - 11 6 - - ZZW 1032,8 50 0,0
06.12.2017 00:00:00 8,1 6,2 - - 13 7 - - WZW 1033,5 29 0,0
05.12.2017 23:00:00 8,5 5,8 - - 11 6 - - ZZW 1033,6 45 0,0
05.12.2017 22:00:00 7,8 6,1 - - 5 3 - - Z 1034,1 29 0,0
05.12.2017 21:00:00 7,7 5,9 - - 9 5 - - Z 1034,5 29 0,0
05.12.2017 20:00:00 8,0 5,8 - - 15 8 - - ZW 1034,9 45 0,0
05.12.2017 19:00:00 7,5 4,9 - - 9 5 - - WZW 1035,0 45 0,0
05.12.2017 18:00:00 7,3 4,7 - - 8 4 - - W 1035,2 45 0,0
05.12.2017 17:00:00 7,3 4,6 - - 5 3 - - ZW 1035,5 50 0,0
05.12.2017 16:00:00 7,3 4,8 - - 5 3 - - Z 1035,6 50 0,0
05.12.2017 15:00:00 7,6 4,9 - - 5 3 - - ZZW 1035,7 50 0,0
05.12.2017 14:00:00 7,7 4,9 - - 13 7 - - NW 1036,0 50 0,0
05.12.2017 13:00:00 7,8 4,8 - - 13 7 - - WZW 1036,6 50 0,0
05.12.2017 12:00:00 7,9 5,6 - - 11 6 - - WZW 1037,0 50 0,0
05.12.2017 11:00:00 7,5 5,4 - - 11 6 - - WZW 1037,5 50 0,0
05.12.2017 10:00:00 7,0 5,5 - - 9 5 - - ZW 1037,6 50 0,0
05.12.2017 09:00:00 6,3 5,3 8,5 10,0 8 4 - - ZZW 1037,7 45 0,0
05.12.2017 08:00:00 5,9 5,4 - - 8 4 - - ZZW 1037,6 29 0,0
05.12.2017 07:00:00 6,0 5,6 - - 15 8 - - W 1037,5 7 0,0
05.12.2017 06:00:00 5,9 5,6 - - 8 4 - - WZW 1037,4 13 0,0
05.12.2017 05:00:00 5,7 5,4 - - 5 3 - - WZW 1037,4 14 0,0

tt = temperatuur
td = dauwpunt
tt -20cm = temperatuur -20cm
tt -100cm = temperatuur -100cm
ff = windsnelheid
fx = windstoten
dd = windrichting
ppp = luchtdruk
vv = zicht
rr = neerslag

Weerstations in de omgeving